Simultaneous Nadir Overpasses (SNOs) Predictions

Prediction of SNOs between METOP-A and TERRA Satellite Orbit:

Table of predicted SNOs for the next 14.0 days since TLE Epoch: 12/23/2017
Index Date (METOP-A) Time (METOP-A) Lat,Lon (METOP-A) SZA (METOP-A ) Date (TERRA) Time (TERRA) Lat,Lon (TERRA) SZA (TERRA ) Distance(km) Time Diff (sec)
1 12/25/2017 07:05:27 -81.38, -57.25 72.44 12/25/2017 07:05:31 -81.39, -57.34 72.44 1.43 4
2 12/25/2017 07:56:06 81.39, 110.62 107.63 12/25/2017 07:54:57 81.39, 110.42 107.58 3.37 69
3 12/28/2017 01:49:13 81.35,-161.35 107.06 12/28/2017 01:50:27 81.24,-161.27 107.02 12.51 74
4 12/28/2017 02:39:47 -81.38, 8.82 72.62 12/28/2017 02:39:47 -81.38, 8.97 72.61 2.59 0
5 12/28/2017 03:30:26 81.38, 176.67 107.44 12/28/2017 03:29:13 81.38, 176.71 107.41 0.64 73
6 12/30/2017 21:23:25 81.38, -92.15 107.17 12/30/2017 21:24:35 81.39, -91.99 107.22 2.93 70
7 12/30/2017 22:14:05 -81.38, 75.66 72.79 12/30/2017 22:14:02 -81.39, 75.60 72.79 1.12 3
8 01/02/2018 16:57:43 81.38, -25.74 106.90 01/02/2018 16:58:50 81.38, -25.83 106.92 1.64 67
9 01/02/2018 17:48:24 -81.38, 141.69 73.10 01/02/2018 17:48:17 -81.38, 141.78 73.10 1.59 7
10 01/05/2018 12:32:02 81.38, 40.66 106.57 01/05/2018 12:33:05 81.38, 40.65 106.60 0.32 63




NCC Satellite Simultaneous Nadir Overpasses (SNOs) Prediction Service
